TimeEDT,TemperatureF,Dew PointF,Humidity,Sea Level PressureIn,VisibilityMPH,Wind Direction,Wind SpeedMPH,Gust SpeedMPH,PrecipitationIn,Events,Conditions,WindDirDegrees,DateUTC
12:54 AM,66.0,48.0,52,30.14,10.0,North,10.4,-,N/A,,Mostly Cloudy,350,2013-08-24 04:54:00
1:54 AM,63.0,48.0,58,30.15,10.0,North,12.7,-,N/A,,Partly Cloudy,10,2013-08-24 05:54:00
2:54 AM,63.0,48.9,60,30.16,10.0,North,8.1,-,N/A,,Partly Cloudy,360,2013-08-24 06:54:00
3:54 AM,61.0,48.0,62,30.18,10.0,North,10.4,-,N/A,,Partly Cloudy,360,2013-08-24 07:54:00
4:54 AM,60.1,48.0,64,30.21,10.0,North,8.1,-,N/A,,Partly Cloudy,350,2013-08-24 08:54:00
5:54 AM,60.1,48.0,64,30.24,10.0,North,6.9,-,N/A,,Partly Cloudy,360,2013-08-24 09:54:00
6:54 AM,61.0,48.0,62,30.26,10.0,North,10.4,-,N/A,,Partly Cloudy,10,2013-08-24 10:54:00
7:54 AM,64.0,48.9,58,30.27,10.0,NNE,11.5,-,N/A,,Partly Cloudy,20,2013-08-24 11:54:00
8:54 AM,66.0,48.9,54,30.28,10.0,NNE,11.5,-,N/A,,Partly Cloudy,20,2013-08-24 12:54:00
9:54 AM,69.1,48.9,49,30.30,10.0,NNE,10.4,-,N/A,,Partly Cloudy,30,2013-08-24 13:54:00
10:54 AM,71.1,45.0,39,30.31,10.0,ENE,11.5,-,N/A,,Partly Cloudy,70,2013-08-24 14:54:00
11:54 AM,70.0,46.9,44,30.31,10.0,East,12.7,-,N/A,,Partly Cloudy,80,2013-08-24 15:54:00
12:54 PM,71.1,45.0,39,30.31,10.0,East,11.5,-,N/A,,Partly Cloudy,90,2013-08-24 16:54:00
1:54 PM,71.1,45.0,39,30.31,10.0,SE,11.5,-,N/A,,Partly Cloudy,130,2013-08-24 17:54:00
2:54 PM,69.1,46.9,45,30.30,10.0,SE,10.4,-,N/A,,Partly Cloudy,130,2013-08-24 18:54:00
3:54 PM,69.1,44.1,40,30.30,10.0,SE,8.1,-,N/A,,Partly Cloudy,140,2013-08-24 19:54:00
4:54 PM,70.0,43.0,38,30.30,10.0,SE,6.9,-,N/A,,Partly Cloudy,140,2013-08-24 20:54:00
5:54 PM,69.1,41.0,36,30.29,10.0,SSE,5.8,-,N/A,,Scattered Clouds,150,2013-08-24 21:54:00
6:54 PM,66.9,41.0,39,30.28,10.0,SE,4.6,-,N/A,,Partly Cloudy,130,2013-08-24 22:54:00
7:54 PM,64.9,46.0,50,30.30,10.0,SSE,4.6,-,N/A,,Partly Cloudy,150,2013-08-24 23:54:00
8:54 PM,64.9,50.0,58,30.32,10.0,South,5.8,-,N/A,,Clear,180,2013-08-25 00:54:00
9:54 PM,64.9,44.1,47,30.32,10.0,SSW,5.8,-,N/A,,Clear,210,2013-08-25 01:54:00
10:54 PM,63.0,45.0,52,30.32,10.0,South,4.6,-,N/A,,Clear,190,2013-08-25 02:54:00
11:54 PM,66.0,44.1,45,30.33,10.0,WSW,10.4,-,N/A,,Clear,240,2013-08-25 03:54:00